Wind_Speed
16 16 17 17 17 18 18 19 18 17 17 15 13 11 10 7 6 10 9 6 6 9 5 9 6 12 9 4 4 6 3 4 7 8 5 19 21 15 24 33 21 8 30 35 34
17 17 18 18 18 19 19 19 19 17 17 16 12 10 10 8 7 13 6 7 6 5 5 11 10 11 4 4 4 3 2 7 5 10 10 16 31 26 21 21 22 25 35 36 32
18 18 18 19 19 19 20 19 19 18 17 16 12 9 7 7 6 13 8 11 13 7 5 8 2 9 2 3 3 3 4 10 14 19 21 22 28 30 27 14 29 28 37 36 33
19 19 19 19 20 20 20 20 19 18 16 15 12 8 6 3 4 4 10 12 18 12 12 12 14 3 5 1 2 5 11 7 13 19 21 19 29 18 24 23 32 34 29 32 31
19 19 20 20 20 20 20 20 19 17 16 14 11 8 4 4 11 9 4 8 16 15 15 13 14 2 3 3 4 4 8 15 15 16 24 25 18 16 24 29 28 27 24 25 25
20 20 20 20 20 21 20 19 18 17 15 13 9 8 4 5 13 9 2 6 13 10 8 11 14 18 9 5 5 11 13 9 18 21 31 26 24 20 24 26 27 28 25 24 24
19 20 20 20 21 21 20 19 18 16 14 12 8 9 10 17 5 13 11 11 10 11 5 10 19 19 9 5 5 5 5 6 9 10 14 26 12 12 30 27 27 28 25 23 27
19 19 20 20 21 21 20 18 18 15 12 10 7 9 10 9 12 11 10 11 9 12 8 12 27 14 11 11 4 4 4 4 1 2 4 10 6 13 29 27 24 22 17 25 24
19 19 19 19 19 21 19 18 18 12 9 7 5 5 10 8 12 14 13 11 12 15 15 16 3 10 7 4 4 6 4 1 5 4 7 5 6 16 26 21 20 18 29 26 26
18 18 18 18 18 20 18 17 9 4 4 6 7 5 13 8 15 16 17 13 14 15 6 15 6 4 3 4 2 1 2 2 4 2 7 7 7 12 23 18 20 31 27 26 23
19 19 18 16 16 17 14 8 10 3 15 14 8 13 23 3 4 15 20 23 19 16 4 4 4 5 10 7 7 11 6 5 2 6 5 7 11 13 20 19 21 28 29 31 27
20 19 18 15 13 12 10 5 14 14 12 18 22 28 30 23 11 17 15 16 7 7 1 4 7 10 10 11 9 8 4 3 6 5 1 12 10 10 14 17 29 32 31 32 28
20 18 17 15 11 9 6 10 16 17 4 14 19 21 21 11 11 16 12 26 5 6 6 6 11 12 11 10 10 5 7 3 7 5 4 4 4 5 8 17 23 29 33 32 32
20 18 15 14 6 6 1 10 11 9 4 7 6 11 17 8 6 18 18 23 5 12 4 6 16 11 5 11 10 5 17 15 18 7 4 2 3 5 7 12 16 25 30 35 36
20 18 13 15 10 6 7 6 6 1 2 4 6 7 14 13 4 9 17 23 11 8 7 10 3 3 2 8 8 1 15 14 15 10 5 1 2 7 4 8 12 20 29 35 37
20 17 16 13 13 6 8 5 5 5 6 5 11 9 7 7 3 2 9 11 14 5 1 10 11 3 9 19 13 15 19 11 7 5 3 5 3 4 7 11 14 17 30 38 35
21 16 18 13 4 3 6 4 4 4 6 4 5 7 9 6 4 4 2 2 6 4 5 7 7 10 25 21 11 6 5 3 5 4 4 6 4 8 16 9 11 19 31 35 38
21 17 17 15 11 11 4 4 3 4 8 6 7 6 10 5 6 5 6 5 7 5 3 6 6 6 7 13 10 6 4 5 6 3 4 5 6 5 12 22 28 26 23 29 34
23 16 19 9 14 12 5 3 7 6 5 9 11 4 3 4 6 7 7 8 10 8 8 6 6 5 12 14 8 3 4 8 8 2 3 3 6 5 4 7 15 14 15 18 30
23 21 19 9 16 17 4 5 5 3 7 8 4 5 3 5 8 9 8 7 13 11 8 5 2 6 5 13 8 10 11 5 4 4 1 5 3 5 6 9 6 10 15 22 22
18 12 7 19 17 11 4 7 5 19 10 3 4 9 4 3 6 6 10 5 14 12 11 6 4 8 5 2 11 1 3 7 6 5 5 3 6 7 10 9 10 16 28 30 29
7 2 3 26 5 4 3 5 5 11 10 6 6 5 8 9 8 5 12 8 25 20 8 8 5 5 12 6 17 8 8 8 5 5 3 5 6 4 11 11 20 22 31 31 27
15 7 8 23 3 2 4 5 11 14 6 5 7 8 4 3 5 11 13 19 32 13 11 6 2 2 10 6 2 14 6 12 5 4 5 6 5 0 11 15 18 19 19 21 23
6 3 4 16 16 5 3 6 8 19 20 24 17 17 17 19 10 15 14 10 22 21 25 17 5 7 8 8 6 10 6 16 10 6 4 5 6 9 14 15 21 26 28 28 28
4 4 2 3 1 4 2 2 12 14 19 20 6 20 18 8 15 10 19 9 14 21 9 9 8 5 5 5 5 12 20 13 9 8 10 12 17 15 16 16 23 31 36 35 33
5 5 8 8 13 4 0 4 10 17 16 21 12 15 17 21 20 22 10 9 8 2 11 3 4 4 3 8 6 6 16 17 9 8 5 15 8 5 23 30 25 25 32 31 29
5 7 4 5 4 2 3 6 13 14 14 17 19 19 20 31 26 25 14 16 13 11 6 9 7 3 5 0 4 1 11 11 6 7 20 19 12 15 16 24 28 29 32 28 24
Wind_Direction
340 340 340 341 340 336 334 334 337 337 334 333 325 323 317 310 277 269 273 149 135 148 135 99 99 79 60 68 100 113 74 282 145 147 138 133 123 142 139 143 154 125 137 143 153
335 335 335 336 337 334 332 332 334 336 334 331 326 322 320 318 271 254 226 208 182 186 145 130 108 86 48 315 118 130 181 225 148 138 140 119 142 140 140 148 127 120 137 144 147
331 331 331 331 331 331 329 329 331 334 333 330 326 318 320 325 282 244 248 237 207 187 178 139 173 108 135 308 341 202 219 141 143 144 142 120 136 135 126 136 146 146 147 150 149
326 327 327 328 326 325 325 326 328 331 332 328 323 314 313 311 198 125 233 240 206 188 171 192 198 295 120 212 310 331 253 181 163 150 143 134 130 131 136 148 151 157 157 154 158
320 321 324 324 323 320 320 321 324 327 328 325 320 309 305 239 221 87 102 206 198 199 189 175 153 158 310 94 296 159 243 132 139 132 119 134 127 123 131 149 154 161 165 169 168
317 319 319 321 320 317 315 316 319 321 322 318 313 298 268 247 229 234 250 245 227 233 246 189 202 221 193 103 79 332 289 92 117 120 124 118 127 126 149 155 164 172 178 182 181
318 318 317 318 318 314 311 311 316 313 313 307 301 289 257 230 166 207 235 254 246 247 283 273 205 173 133 102 6 291 358 26 104 112 123 120 115 138 159 164 175 183 186 182 176
319 318 316 317 315 312 308 308 310 304 301 292 286 285 254 236 242 221 212 240 242 249 200 145 171 128 91 140 68 89 37 40 47 159 161 116 152 154 166 172 182 193 191 174 178
318 317 315 315 315 312 308 310 309 299 290 276 275 275 266 198 207 185 197 240 243 257 244 186 168 105 143 117 58 23 118 157 309 263 129 104 139 173 172 182 182 158 151 160 178
322 318 315 315 317 313 315 324 337 304 315 287 237 293 243 210 190 202 197 219 254 274 265 193 117 86 358 76 157 133 42 269 236 254 88 104 149 173 180 183 152 151 154 157 155
327 321 318 314 316 315 333 28 15 57 323 269 260 261 288 344 253 218 212 232 249 271 214 198 100 178 201 195 164 145 147 200 214 223 102 153 150 175 185 170 163 162 168 170 171
327 325 317 311 311 307 316 341 9 332 301 286 271 270 263 278 298 237 236 219 202 236 109 44 223 209 179 148 147 85 49 292 324 271 128 152 178 181 181 179 179 175 178 178 176
325 326 317 305 306 294 303 360 357 349 272 289 255 253 250 230 227 237 233 216 182 239 239 178 237 151 156 154 144 206 158 240 92 355 89 50 4 194 217 193 191 188 190 190 187
325 324 320 305 292 285 294 340 351 21 44 274 213 241 225 233 272 238 235 203 195 225 217 235 261 170 132 156 162 241 197 171 92 64 151 74 239 260 202 208 197 201 194 200 198
322 318 315 302 294 298 295 347 4 83 336 230 207 191 184 170 195 204 197 199 202 227 118 245 286 59 78 162 137 259 136 148 142 124 90 106 132 245 181 210 214 211 206 207 207
316 313 302 290 287 287 278 316 2 51 253 292 165 174 121 166 232 79 179 191 225 216 207 253 297 215 181 143 123 133 82 55 57 80 29 201 78 264 203 210 217 216 207 208 212
311 306 290 275 254 226 312 330 55 167 321 283 187 148 168 160 236 153 138 185 185 161 259 332 298 298 107 99 141 69 82 45 17 30 207 341 100 236 219 229 204 207 209 210 210
313 303 275 258 231 249 257 60 173 245 276 307 352 116 171 150 239 202 145 211 256 129 114 192 327 216 185 145 164 169 135 136 151 168 274 257 221 243 202 218 222 218 215 216 205
321 302 276 235 215 209 170 121 201 214 314 359 339 127 249 203 165 159 199 205 221 160 173 156 243 287 133 151 122 242 55 161 109 77 47 264 288 354 174 208 212 204 160 167 191
327 314 278 214 195 182 95 223 226 254 40 25 307 7 320 225 179 163 183 204 214 183 161 221 284 226 176 94 26 154 174 93 19 102 246 275 260 199 179 199 184 156 161 158 170
328 320 14 167 168 160 183 222 279 276 333 323 333 341 295 309 245 190 197 256 198 217 164 146 89 281 87 159 148 123 103 49 115 135 162 165 262 208 191 176 168 166 157 158 166
343 333 110 166 121 180 171 185 260 267 273 279 288 241 273 303 300 284 201 212 198 207 171 183 158 223 233 202 163 118 139 110 109 201 223 165 257 275 187 160 160 165 166 164 163
330 281 146 186 174 222 251 221 240 270 259 249 249 206 178 294 324 270 235 217 191 180 185 173 271 245 328 36 175 147 168 169 129 70 220 147 252 138 120 138 153 132 150 149 154
314 320 264 205 227 164 233 254 246 261 249 250 259 269 281 283 236 273 249 206 212 205 197 156 132 163 200 227 149 131 163 168 157 145 184 210 128 130 115 105 108 107 119 123 127
255 257 320 303 319 338 134 286 291 281 278 236 258 232 245 268 282 267 221 204 207 214 141 134 185 166 214 262 171 166 165 164 174 175 156 182 143 152 134 128 122 117 118 118 118
282 346 343 299 302 299 264 241 282 299 278 264 228 253 255 246 237 264 195 193 183 150 155 174 193 158 175 291 72 142 172 175 194 152 145 148 124 153 120 116 114 116 115 114 120
284 285 308 278 302 300 239 280 278 302 290 281 277 281 282 278 224 233 243 214 186 156 147 130 128 98 221 155 88 105 195 211 153 139 141 153 151 143 128 124 127 124 126 129 128
Height
1526 1523 1520 1517 1515 1511 1509 1507 1505 1503 1502 1501 1500 1500 1498 1498 1498 1496 1496 1501 1500 1501 1506 1504 1502 1503 1501 1503 1505 1508 1516 1520 1509 1509 1508 1504 1508 1517 1518 1520 1523 1523 1525 1530 1533
1525 1522 1519 1516 1513 1510 1507 1505 1504 1502 1500 1500 1499 1498 1497 1497 1496 1494 1497 1498 1500 1501 1504 1503 1502 1503 1502 1503 1506 1508 1517 1509 1497 1501 1503 1504 1506 1514 1520 1524 1526 1526 1529 1531 1532
1523 1520 1517 1514 1511 1509 1506 1504 1502 1500 1499 1497 1497 1496 1496 1496 1495 1492 1493 1494 1497 1500 1503 1503 1500 1506 1507 1507 1509 1509 1511 1497 1498 1500 1502 1509 1512 1513 1518 1526 1523 1525 1530 1530 1532
1521 1518 1515 1513 1510 1507 1504 1502 1501 1499 1497 1495 1495 1495 1495 1496 1500 1491 1491 1492 1495 1500 1503 1503 1502 1506 1509 1509 1509 1512 1499 1500 1498 1499 1503 1510 1516 1519 1518 1523 1525 1526 1530 1533 1534
1519 1516 1513 1510 1507 1505 1502 1500 1499 1497 1495 1494 1493 1493 1494 1494 1490 1490 1491 1492 1494 1498 1502 1504 1504 1500 1493 1505 1509 1510 1499 1498 1498 1501 1503 1510 1515 1519 1524 1525 1527 1529 1531 1532 1535
1516 1513 1510 1507 1504 1502 1499 1497 1496 1495 1494 1492 1491 1491 1493 1493 1487 1489 1490 1492 1493 1497 1497 1499 1497 1493 1493 1503 1511 1513 1502 1500 1502 1505 1506 1511 1519 1520 1527 1527 1529 1530 1531 1533 1535
1513 1511 1508 1505 1502 1498 1495 1494 1492 1492 1491 1489 1489 1488 1489 1484 1486 1487 1488 1490 1491 1494 1496 1491 1494 1494 1498 1505 1508 1511 1510 1507 1505 1507 1511 1513 1525 1524 1525 1527 1527 1528 1530 1533 1535
1511 1508 1505 1502 1499 1495 1492 1491 1489 1488 1488 1487 1487 1486 1482 1481 1483 1484 1486 1487 1488 1492 1495 1494 1495 1497 1496 1503 1505 1511 1513 1527 1511 1509 1512 1513 1536 1526 1525 1526 1527 1528 1531 1532 1534
1508 1505 1502 1499 1496 1492 1489 1487 1485 1485 1485 1485 1485 1485 1479 1477 1479 1482 1485 1485 1485 1488 1492 1497 1499 1497 1498 1501 1513 1517 1529 1527 1521 1510 1510 1513 1531 1525 1525 1524 1527 1529 1530 1532 1533
1506 1502 1499 1497 1494 1490 1487 1484 1482 1482 1484 1484 1484 1486 1476 1475 1477 1479 1482 1484 1484 1484 1490 1493 1494 1502 1503 1507 1532 1524 1525 1524 1528 1514 1510 1518 1524 1524 1524 1525 1527 1528 1529 1531 1532
1503 1500 1497 1494 1492 1489 1486 1483 1485 1485 1483 1482 1481 1475 1472 1474 1476 1477 1480 1481 1483 1484 1489 1489 1499 1507 1500 1498 1497 1502 1517 1523 1515 1510 1518 1522 1522 1522 1522 1525 1527 1527 1526 1527 1528
1501 1498 1494 1492 1490 1488 1487 1486 1490 1495 1481 1474 1472 1470 1468 1475 1477 1473 1478 1480 1481 1486 1483 1493 1501 1489 1488 1493 1500 1513 1523 1526 1515 1509 1514 1519 1525 1521 1521 1522 1521 1522 1524 1526 1528
1498 1495 1492 1489 1488 1487 1487 1487 1485 1483 1482 1466 1463 1463 1464 1470 1472 1468 1473 1474 1478 1482 1483 1496 1483 1480 1486 1498 1508 1513 1516 1518 1526 1521 1521 1530 1537 1526 1520 1519 1520 1520 1520 1523 1525
1496 1493 1490 1486 1489 1486 1486 1485 1484 1483 1493 1471 1459 1455 1461 1466 1468 1464 1466 1471 1476 1479 1480 1484 1469 1480 1486 1499 1500 1518 1497 1510 1508 1535 1547 1534 1564 1532 1522 1519 1518 1517 1518 1519 1521
1494 1491 1489 1487 1485 1486 1486 1483 1482 1483 1513 1453 1450 1451 1452 1460 1459 1460 1461 1468 1473 1473 1479 1480 1472 1478 1487 1487 1490 1506 1496 1503 1507 1524 1541 1538 1551 1530 1520 1524 1516 1513 1515 1514 1517
1491 1489 1487 1486 1484 1484 1483 1483 1483 1499 1507 1455 1443 1446 1451 1455 1456 1456 1459 1465 1467 1471 1473 1473 1468 1471 1476 1479 1486 1499 1505 1510 1517 1527 1559 1540 1546 1535 1525 1512 1509 1508 1509 1510 1512
1488 1486 1483 1484 1483 1483 1482 1483 1500 1510 1462 1454 1449 1445 1449 1457 1457 1457 1462 1467 1479 1492 1493 1479 1475 1465 1469 1493 1497 1500 1513 1547 1555 1562 1559 1536 1546 1528 1504 1500 1499 1501 1502 1505 1509
1484 1481 1478 1479 1480 1481 1483 1487 1505 1480 1473 1452 1449 1445 1456 1455 1458 1459 1466 1477 1468 1473 1495 1503 1504 1466 1465 1476 1495 1508 1507 1535 1570 1568 1562 1538 1544 1512 1491 1491 1493 1495 1498 1501 1506
1479 1475 1471 1474 1476 1479 1484 1501 1494 1480 1466 1467 1454 1457 1458 1455 1457 1462 1469 1472 1462 1465 1490 1502 1493 1458 1463 1463 1468 1495 1512 1505 1543 1549 1558 1542 1515 1493 1489 1493 1494 1496 1499 1498 1501
1475 1470 1466 1471 1473 1478 1485 1492 1481 1468 1470 1472 1476 1461 1470 1463 1463 1464 1469 1456 1456 1455 1458 1473 1492 1462 1460 1462 1472 1479 1489 1516 1535 1562 1565 1541 1524 1523 1502 1498 1495 1498 1498 1499 1501
1475 1470 1466 1466 1472 1477 1489 1485 1473 1467 1473 1475 1473 1478 1470 1473 1461 1463 1461 1448 1445 1448 1453 1464 1479 1475 1462 1470 1487 1495 1500 1509 1519 1534 1555 1553 1535 1496 1494 1492 1495 1496 1496 1499 1502
1475 1474 1466 1467 1473 1474 1481 1474 1471 1467 1473 1475 1469 1471 1473 1471 1471 1464 1453 1445 1438 1440 1457 1458 1477 1490 1479 1459 1453 1468 1489 1500 1529 1531 1533 1538 1526 1482 1483 1487 1491 1495 1497 1499 1503
1476 1471 1468 1469 1475 1475 1469 1469 1469 1464 1469 1470 1466 1460 1460 1467 1478 1452 1442 1432 1431 1437 1448 1454 1477 1499 1489 1471 1470 1472 1475 1478 1504 1509 1524 1537 1522 1483 1482 1489 1495 1497 1500 1503 1506
1480 1476 1465 1466 1464 1466 1468 1468 1466 1458 1459 1461 1457 1461 1462 1458 1462 1457 1439 1425 1426 1428 1434 1442 1469 1480 1500 1482 1469 1479 1477 1478 1486 1515 1516 1509 1504 1492 1488 1492 1496 1499 1502 1506 1508
1480 1473 1470 1470 1465 1467 1468 1465 1463 1457 1451 1452 1446 1447 1455 1461 1451 1443 1426 1422 1421 1422 1432 1441 1468 1465 1457 1451 1455 1458 1468 1474 1484 1485 1492 1496 1495 1490 1488 1491 1496 1499 1504 1507 1511
1480 1476 1471 1469 1465 1463 1460 1461 1460 1450 1450 1443 1444 1435 1442 1450 1444 1438 1419 1417 1422 1422 1430 1438 1462 1454 1457 1451 1453 1462 1453 1458 1468 1476 1476 1485 1494 1488 1491 1494 1501 1504 1506 1511 1515
1480 1477 1475 1468 1466 1465 1460 1456 1450 1447 1436 1434 1437 1438 1438 1424 1416 1411 1406 1402 1405 1417 1432 1440 1456 1468 1475 1459 1455 1471 1457 1464 1459 1463 1466 1486 1488 1488 1494 1496 1501 1506 1508 1512 1516